STARLINK-32808, 62863

Orbit data source: Space-Track

STARLINK-32808, 62863 is a payload satellite owned by SpaceX/Seattle (US) in LEO that was launched on Sat, 01 Feb 2025 UTC via an FALCON 9 launch vehicle from the Air Force Western Test Range (AFWTR). Payload-class satellites include a variety of spacecraft equipped with specific instruments for various scientific and technological missions. These include communications satellites like Starlink; space stations such as the ISS; scientific satellites like the Hubble; Earth observation satellites from companies like Planet Labs, Umbra, and HawkEye 360; GPS; miniature CubeSats for education and research; and military/defense satellites.

Loading next visibility...
Identifier
62863, 2025-022K
Orbit
LEO
Last TLE update
10 hours ago
Origin
Manufacturer
SpaceX/Seattle
Mission
Operational Commercial Communications
Bus & Motor
STARLINK V2M, Unknown motor
Mass
730 kg wet, ~700 kg dry
Launch date (UTC)
2025-02-01 (5 months ago)
Launch vehicle
FALCON 9
Launch site
Air Force Western Test Range (AFWTR)
Object type
Payload
Rocket body
Debris
Shape & HBR
Box + 2 Pan, 29 m
Radar Cross Section
33.884 m², Large (>1 m²)

Expand to show TLE details & history

TLE from 10 hours ago
0 STARLINK-32808
1 62863U 25022K   25191.58335648 -.00033295  00000-0 -11166-2 0  9997
2 62863  53.1599 174.3514 0001329  79.0006 153.6024 15.30212155  5956
Epoch: 2025-07-10T14:00Z
TLE epoch observation values (Epoch: 2025-07-10T14:00:01.999Z)
Latitude
-39.68834°
Longitude
-106.21248°
Altitude
489.036 km
Speed
7.62 km/s
True Right ascension
02h 10m 10s
True Declination
-39° 30' 46"
Sunlit
Object was in daylight at epoch
Visualization orbit readout
Latitude
46.03072°
Longitude
163.00431°
Altitude
479.444 km
Speed
7.632 km/s
Apparent Right ascension
22h 27m 45s
Apparent Declination
6° 02' 32"
Sunlit
Object is in partial shadow
Visualization observer readout
Local Sidereal Time
12:44:13
Azimuth
42.485° NE
Elevation
-34.327°
Doppler factor
1
Orbital elements
Apogee altitude
476.346 km
Perigee altitude
474.524 km
Semi-major axis
6,853.572 km
Eccentricity
0.00013
Inclination
53.1599°
RAAN
174.3514°
Arg. of periapsis
79.0006°
True anomaly
Unknown
Mean anomaly
153.6024°
Eccentric anomaly
Unknown
Mean motion
3.82532 °/min
Orbital period
94.11 mins
BSTAR
-0.0011166
Loading maneuver chart data...
Loading SW <> Apogee altitude chart data...
Loading historical data...
Loading historical data...
Loading historical data...
Loading historical data...
Loading historical data...
Loading historical data...
Loading historical data...

STARLINK-32808 Visibility forecast

Observer location: undefined°, undefined°

Span
Click to sort rows by Start time (UTC) header in descending order
Start Az.
Max El. time (UTC)
Max El. Az.
Max El.
End time (UTC)
End Az.
7 mins2025-07-11 01:41:59.673Z228.169° WSW2025-07-11 01:45:59.673Z54.025° ENE42.757°2025-07-11 01:48:59.673Z50.466° ENE
4 mins2025-07-11 06:39:59.673Z341.451° N2025-07-11 06:41:59.673Z16.148° NNE15.911°2025-07-11 06:43:59.673Z53.428° ENE
6 mins2025-07-11 08:17:59.673Z315.381° NNW2025-07-11 08:20:59.673Z87.159° E42.253°2025-07-11 08:23:59.673Z123.872° SE
|